Location: Antoign�
(47.0844°N, 0.1131°W)
Time: 08:41:27
(UTC+00:00)

Cosmos 1844 - Pass Details

Date: 03 March 2021
Orbit: 822 x 868 km, 70.9° (Epoch: 13 April)

Event Time Altitude Azimuth Distance (km) Brightness Sun altitude
Rises 18:33:02 0° 336° (NNW) 3,461 7.2 -8.3°
Reaches altitude 10° 18:35:41 10° 343° (NNW) 2,517 6.4 -8.7°
Maximum altitude 18:41:09 41° 54° (NE) 1,222 4.2 -9.7°
Drops below altitude 10° 18:46:32 10° 124° (SE) 2,481 5.6 -10.6°
Enters shadow 18:47:05 - 126° (SE) 2,678 5.8 -10.7°
